Weather History for Budapest Ferihegy, Hungary

Change the Weather History Date:

Tuesday, September 25, 2012

  Actual Average Record
Temperature  
Mean Temperature 67 °F -  
Max Temperature 75 °F 60 °F 78 °F (1999)
Min Temperature 59 °F 42 °F 39 °F (1997)
Cooling Degree Days 2    
Growing Degree Days 17 (Base 50)    
Moisture  
Dew Point 54 °F    
Average Humidity 69    
Maximum Humidity 100    
Minimum Humidity 34    
Precipitation  
Precipitation 0.00 in - - ()
Sea Level Pressure  
Sea Level Pressure 29.76 in    
Wind  
Wind Speed 9 mph ()    
Max Wind Speed 24 mph    
Max Gust Speed 58 mph    
Visibility 6.0 miles    
Events Rain , Thunderstorm    
Averages and records for this station are not official NWS values.
T = Trace of Precipitation, MM = Missing Value Source: Averaged Metar Reports

Daily Weather History Graph

Daily Weather History Graph

Search for Another Location

Airport:

Trip Planner

Search our weather history database for the weather conditions in past years. The results will help you decide how hot, cold, wet, or windy it might be!

Date:

Astronomy

Sep. 25, 2012 Rise Set
Actual Time 6:34 AM CEST 6:34 PM CEST
Civil Twilight 6:03 AM CEST 7:04 PM CEST
Nautical Twilight 5:27 AM CEST 7:40 PM CEST
Astronomical Twilight 4:50 AM CEST 8:17 PM CEST
Moon 4:03 PM CEST (9/25) 1:17 AM CEST (9/25)
Length of Visible Light 13h 01m
Length of Day
12h 00m
Waxing Gibbous, 77% of the Moon is Illuminated
Sep 25
Waxing Gibbous
Sep 30
Full
Oct 8
Last Quarter
Oct 15
New
Oct 22
First Quarter

Hourly Weather History & Observations

Time (CEST) Temp. Dew Point Humidity Pressure Visibility Wind Dir Wind Speed Gust Speed Precip Events Conditions
12:00 AM 64.4 °F 59.0 °F 83% 29.65 in - East 4.6 mph - N/A   Clear
12:30 AM 62.6 °F 57.2 °F 82% 29.65 in - Variable 2.3 mph - N/A   Clear
1:00 AM 60.8 °F 57.2 °F 88% 29.65 in 6.2 mi Variable 2.3 mph - N/A   Scattered Clouds
1:30 AM 60.8 °F 55.4 °F 82% 29.62 in 6.2 mi NE 4.6 mph - N/A   Scattered Clouds
2:00 AM 62.6 °F 59.0 °F 88% 29.71 in 1.2 mi West 15.0 mph 57.5 mph N/A Rain , Thunderstorm Thunderstorms and Rain
2:30 AM 60.8 °F 60.8 °F 100% 29.65 in 6.2 mi WNW 9.2 mph - N/A   Scattered Clouds
3:00 AM 60.8 °F 60.8 °F 100% 29.68 in 6.2 mi SW 4.6 mph - N/A   Scattered Clouds
3:30 AM 59.0 °F 59.0 °F 100% 29.68 in 6.2 mi West 6.9 mph - N/A   Mostly Cloudy
4:00 AM 59.0 °F 59.0 °F 100% 29.65 in 6.2 mi Calm Calm - N/A   Scattered Clouds
4:30 AM 59.0 °F 59.0 °F 100% 29.65 in 6.2 mi NW 5.8 mph - N/A   Mostly Cloudy
5:00 AM 60.8 °F 59.0 °F 94% 29.65 in 6.2 mi West 10.4 mph - N/A   Mostly Cloudy
5:30 AM 60.8 °F 57.2 °F 88% 29.68 in 6.2 mi WNW 12.7 mph - N/A   Mostly Cloudy
6:00 AM 60.8 °F 60.8 °F 100% 29.68 in 6.2 mi West 15.0 mph - N/A   Mostly Cloudy
6:30 AM 60.8 °F 57.2 °F 88% 29.68 in 6.2 mi West 20.7 mph - N/A   Mostly Cloudy
7:00 AM 60.8 °F 57.2 °F 88% 29.71 in 6.2 mi WNW 18.4 mph - N/A Rain Light Rain Showers
7:30 AM 60.8 °F 57.2 °F 88% 29.71 in 6.2 mi WNW 19.6 mph - N/A Rain Light Rain Showers
8:00 AM 60.8 °F 57.2 °F 88% 29.74 in 6.2 mi WNW 24.2 mph - N/A Rain Light Rain Showers
8:30 AM 62.6 °F 57.2 °F 82% 29.74 in 6.2 mi WNW 20.7 mph - N/A   Scattered Clouds
9:00 AM 64.4 °F 53.6 °F 68% 29.74 in 6.2 mi NW 20.7 mph - N/A   Scattered Clouds
9:30 AM 64.4 °F 53.6 °F 68% 29.74 in 6.2 mi NW 15.0 mph - N/A   Scattered Clouds
10:00 AM 66.2 °F 53.6 °F 64% 29.77 in 6.2 mi West 18.4 mph - N/A   Partly Cloudy
10:30 AM 68.0 °F 55.4 °F 64% 29.77 in 6.2 mi WNW 20.7 mph - N/A   Partly Cloudy
11:00 AM 68.0 °F 53.6 °F 60% 29.77 in 6.2 mi West 21.9 mph - N/A   Partly Cloudy
11:30 AM 69.8 °F 53.6 °F 56% 29.80 in 6.2 mi West 19.6 mph - N/A   Partly Cloudy
12:00 PM 69.8 °F 51.8 °F 53% 29.80 in 6.2 mi WNW 15.0 mph - N/A   Partly Cloudy
12:30 PM 71.6 °F 50.0 °F 46% 29.80 in 6.2 mi West 15.0 mph - N/A   Partly Cloudy
1:00 PM 73.4 °F 46.4 °F 38% 29.80 in - West 15.0 mph - N/A   Clear
1:30 PM 73.4 °F 44.6 °F 36% 29.80 in - West 12.7 mph - N/A   Clear
2:00 PM 75.2 °F 46.4 °F 36% 29.83 in - West 13.8 mph - N/A   Clear
2:30 PM 75.2 °F 44.6 °F 34% 29.83 in - West 10.4 mph - N/A   Clear
3:00 PM 75.2 °F 48.2 °F 38% 29.83 in - WNW 8.1 mph - N/A   Clear
3:30 PM 75.2 °F 46.4 °F 36% 29.80 in - WSW 10.4 mph - N/A   Clear
4:00 PM 75.2 °F 46.4 °F 36% 29.80 in - SW 9.2 mph - N/A   Clear
4:30 PM 75.2 °F 46.4 °F 36% 29.80 in - SW 8.1 mph - N/A   Clear
5:00 PM 73.4 °F 46.4 °F 38% 29.83 in - SSW 9.2 mph - N/A   Clear
5:30 PM 73.4 °F 48.2 °F 41% 29.83 in - SSW 9.2 mph - N/A   Clear
6:00 PM 73.4 °F 50.0 °F 44% 29.83 in - South 5.8 mph - N/A   Clear
6:30 PM 69.8 °F 53.6 °F 56% 29.83 in - SSE 4.6 mph - N/A   Clear
7:00 PM 68.0 °F 53.6 °F 60% 29.83 in - SSE 4.6 mph - N/A   Clear
7:30 PM 64.4 °F 53.6 °F 68% 29.83 in - SSE 4.6 mph - N/A   Clear
8:00 PM 62.6 °F 53.6 °F 72% 29.83 in - SE 4.6 mph - N/A   Clear
8:30 PM 64.4 °F 53.6 °F 68% 29.83 in - SSE 6.9 mph - N/A   Clear
9:00 PM 60.8 °F 53.6 °F 77% 29.83 in - ESE 4.6 mph - N/A   Clear
9:30 PM 60.8 °F 53.6 °F 77% 29.86 in - ESE 6.9 mph - N/A   Clear
10:00 PM 59.0 °F 53.6 °F 82% 29.86 in - East 4.6 mph - N/A   Clear
10:30 PM 60.8 °F 53.6 °F 77% 29.86 in - East 6.9 mph - N/A   Clear
11:00 PM 59.0 °F 51.8 °F 77% 29.86 in - SE 5.8 mph - N/A   Clear
11:30 PM 59.0 °F 53.6 °F 82% 29.86 in - SE 6.9 mph - N/A   Clear